Location: Cache
(41.8359°N, 112.0029°W)
Time: 11:39:16
(UTC+00:00)

N. Korean satellite - Visible Passes

Search period start: 20 February 2020 00:00
Search period end: 01 March 2020 00:00
Orbit: 456 x 505 km, 97.2° (Epoch: 19 February)

Date Brightness Start Highest point End Pass type
(mag) Time Alt. Az. Time Alt. Az. Time Alt. Az.
20 Feb 6.6 13:26:48 10° N 13:30:30 69° WNW 13:34:11 10° SSW visible
21 Feb 10.4 01:37:59 10° WSW 01:39:19 12° W 01:40:38 10° WNW visible
21 Feb 7.5 13:01:19 10° NNE 13:04:59 54° E 13:08:36 10° S visible
22 Feb 9.0 12:36:12 10° NE 12:39:21 25° E 12:42:28 10° SSE visible
23 Feb 10.0 12:11:53 10° ENE 12:13:37 13° E 12:15:21 10° ESE visible
24 Feb 6.6 13:17:59 10° NNE 13:21:44 89° WNW 13:25:24 10° SSW visible
25 Feb 8.1 12:52:36 10° NNE 12:56:09 41° E 12:59:38 10° S visible
26 Feb 9.5 12:27:40 10° NE 12:30:29 20° E 12:33:15 10° SE visible
27 Feb 6.8 13:34:47 10° N 13:38:25 53° WNW 13:41:58 10° SSW visible
28 Feb 7.0 13:09:11 10° NNE 13:12:53 70° E 13:16:32 10° S visible
29 Feb 8.6 12:43:55 10° NNE 12:47:16 32° E 12:50:34 10° SSE visible
